Regional Weather Roundup
Issued by NWS

Home | Current Version | Previous Version | Text Only | Print | Product List | Glossary On
Versions: 1 2 3 4 5 6 7 8 9 10 11 12 13 14 15 16 17 18 19 20 21 22 23 24 25 26 27 28 29 30 31 32 33 34 35 36 37 38 39 40 41 42 43 44 45 46 47 48 49 50
000
ASUS43 KTOP 201159
RWRKS

WEATHER ROUNDUP FOR KANSAS
NATIONAL WEATHER SERVICE GOODLAND KS
700 AM CDT FRI APR 20 2018

NOTE:  "FAIR" INDICATES FEW OR NO CLOUDS BELOW 12,000 FEET WITH NO
SIGNIFICANT WEATHER AND/OR OBSTRUCTIONS TO VISIBILITY.

KSZ001>006-013>018-027>032-041>047-201300-
NORTHWEST KANSAS

CITY           SKY/WX    TMP DP  RH WIND       PRES   REMARKS
GOODLAND       CLOUDY    41  29  62 S29G36    30.10F
6HR MIN TEMP:  39; 6HR MAX TEMP:  43;

HAYS           CLOUDY    42  29  59 SE12      30.27F
HILL CITY      PTCLDY    43  28  55 SE12      30.25S
6HR MIN TEMP:  35; 6HR MAX TEMP:  44;

RUSSELL        CLOUDY    44  31  60 SE18      30.27F
6HR MIN TEMP:  36; 6HR MAX TEMP:  45;

$$

KSZ061>065-074>080-084>089-201300-
SOUTHWEST KANSAS

CITY           SKY/WX    TMP DP  RH WIND       PRES   REMARKS
DODGE CITY     CLOUDY    42  28  57 SE22G29   30.22F
6HR MIN TEMP:  42; 6HR MAX TEMP:  44;

GARDEN CITY    CLOUDY    42  27  55 SE25G33   30.17F
6HR MIN TEMP:  42; 6HR MAX TEMP:  47;

GREAT BEND     CLOUDY    43  30  60 SE14      30.29F
LIBERAL        CLOUDY    44  31  60 SE16      30.17F
$$

KSZ066>073-081>083-090>101-201300-
SOUTHEAST KANSAS

CITY           SKY/WX    TMP DP  RH WIND       PRES   REMARKS
CHANUTE        CLEAR     40  31  70 E9        30.40R
6HR MIN TEMP:  40; 6HR MAX TEMP:  45;

COFFEYVILLE    PTCLDY    37  32  82 E7        30.39R
6HR MIN TEMP:  34; 6HR MAX TEMP:  40;

HUTCHINSON     CLOUDY    41  31  67 E9        30.33S
6HR MIN TEMP:  37; 6HR MAX TEMP:  45;

MEDICINE LODGE   N/A     42  31  64 E9        30.29F
NEWTON         PTCLDY    38  30  73 E12       30.34  WCI  30
PARSONS        CLEAR     40  31  70 VRB3      30.40S
6HR MIN TEMP:  35; 6HR MAX TEMP:  42;

WICHITA INTL   CLOUDY    44  32  62 E9        30.33F
6HR MIN TEMP:  41; 6HR MAX TEMP:  47;

WICHITA JABRA  CLOUDY    38  32  79 E6        30.34F
6HR MIN TEMP:  34; 6HR MAX TEMP:  40;

WICHITA MCCONL CLOUDY    42  30  62 SE10      30.33F
WINFIELD       MOCLDY    42  33  70 E7        30.35R
6HR MIN TEMP:  41; 6HR MAX TEMP:  43;

$$

KSZ007>012-019>026-033>040-048>060-102>105-201300-
NORTHEAST KANSAS

CITY           SKY/WX    TMP DP  RH WIND       PRES   REMARKS
CONCORDIA      CLOUDY    39  30  70 E6        30.35R
6HR MIN TEMP:  32; 6HR MAX TEMP:  41;

EMPORIA        CLOUDY    35  29  78 E8        30.38R
6HR MIN TEMP:  33; 6HR MAX TEMP:  40;

LAWRENCE       CLOUDY    32  30  92 CALM      30.44R
6HR MIN TEMP:  29; 6HR MAX TEMP:  38;

MANHATTAN      CLOUDY    35  28  75 CALM      30.39R
6HR MIN TEMP:  32; 6HR MAX TEMP:  42;

OLATHE IND     CLOUDY    38  29  70 SE3       30.44R
6HR MIN TEMP:  38; 6HR MAX TEMP:  44;

OLATHE EXE     CLOUDY    39  29  67 SE6       30.43R
6HR MIN TEMP:  38; 6HR MAX TEMP:  44;

SALINA         CLOUDY    42  32  67 SE10      30.35S
6HR MIN TEMP:  36; 6HR MAX TEMP:  46;

TOPEKA BILLARD CLOUDY    33  29  85 E5        30.42R
6HR MIN TEMP:  33; 6HR MAX TEMP:  42;

TOPEKA FORBES  CLOUDY    34  29  82 E6        30.41R
6HR MIN TEMP:  34; 6HR MAX TEMP:  41;

$$




USA.gov is the U.S. government's official web portal to all federal, state and local government web resources and services.